DW6386 Weather Reports


time (UTC)temp
C
wind
direction
speed
KPH
gust
KPH
rain 1hr
cm
rain 24hr
cm
rain mn
cm
humidity
%
barometer
mb
20260506214501 19 71 0.0 6.4 0.10 2.03 2.03 97 1009.5
20260506213106 19 85 1.6 6.4 0.03 1.96 1.96 97 1009.4
20260506211600 19 50 0.0 3.2 0.08 1.96 1.96 97 1009.4
20260506210059 19 46 1.6 6.4 0.08 1.93 1.93 97 1009.6
20260506204600 19 51 3.2 9.7 0.10 1.93 1.93 97 1009.4
20260506203058 19 84 3.2 8.0 0.15 1.93 1.93 96 1008.8
20260506201558 19 312 1.6 9.7 0.10 1.88 1.88 96 1008.8
20260506200104 19 72 0.0 4.8 0.13 1.85 1.85 96 1009.6
20260506194557 19 73 0.0 8.0 0.10 1.83 1.83 96 1010.2
20260506193057 19 160 0.0 1.6 0.05 1.78 1.78 95 1010.0
20260506191556 19 55 1.6 9.7 0.05 1.78 1.78 95 1010.4
20260506190058 19 51 4.8 12.9 0.00 1.73 1.73 94 1010.3
20260506184555 20 4 1.6 11.3 0.00 1.73 1.73 93 1009.7
20260506183054 20 33 3.2 11.3 0.00 1.73 1.73 93 1010.7
20260506181557 20 65 3.2 11.3 0.00 1.73 1.73 91 1010.7
20260506180053 20 51 3.2 14.5 0.00 1.73 1.73 91 1010.7
20260506174555 20 37 4.8 12.9 0.00 1.73 1.73 91 1010.7
20260506173123 20 45 3.2 16.1 0.00 1.73 1.73 93 1010.8
20260506171554 20 52 6.4 16.1 0.00 1.73 1.73 93 1010.7
20260506170047 19 75 0.0 8.0 0.00 1.73 1.73 96 1010.3
20260506164554 18 74 3.2 12.9 0.00 1.73 1.73 96 1010.4
20260506163049 18 51 1.6 12.9 0.00 1.73 1.73 97 1010.4
20260506161549 18 51 3.2 11.3 0.00 1.73 1.73 97 1010.3
20260506160046 17 41 0.0 14.5 0.00 1.73 1.73 97 1010.3
20260506154549 17 58 0.0 6.4 0.00 1.73 1.73 97 1010.3
20260506153047 17 319 0.0 0.0 0.05 1.73 1.73 98 1010.2
20260506151542 17 72 0.0 12.9 0.13 1.73 1.73 97 1010.7
20260506150043 17 43 3.2 12.9 0.15 1.73 1.73 97 1010.8
20260506144543 17 71 0.0 6.4 0.23 1.73 1.73 98 1010.8
20260506143043 17 51 0.0 8.0 0.33 1.68 1.68 97 1011.0
20260506141540 17 39 3.2 9.7 0.38 1.60 1.60 97 1011.3
20260506140038 16 70 1.6 6.4 0.53 1.57 1.57 97 1011.2
20260506134536 16 16 4.8 9.7 0.64 1.50 1.50 97 1010.4
20260506133035 16 77 3.2 12.9 0.69 1.35 1.35 97 1010.6
20260506131545 16 72 4.8 14.5 0.69 1.19 1.19 96 1010.8
20260506130042 16 91 0.0 9.7 0.79 1.04 1.04 96 1010.3
20260506124532 16 28 1.6 8.0 0.69 0.84 0.84 96 1010.2
20260506123031 16 51 3.2 9.7 0.61 0.64 0.64 95 1010.4
20260506121529 16 25 0.0 11.3 0.48 0.48 0.48 94 1010.2
20260506120028 16 52 0.0 4.8 0.25 0.25 0.25 92 1010.1
20260506114523 16 79 0.0 3.2 0.15 0.15 0.15 90 1010.0
20260506113020 17 68 1.6 6.4 0.03 0.03 0.03 88 1009.6
20260506111521 17 99 0.0 0.0 0.00 0.00 0.00 85 1009.2
20260506110017 17 94 0.0 6.4 0.00 0.00 0.00 83 1009.0
20260506104512 18 52 0.0 16.1 0.00 0.00 0.00 82 1008.8
20260506103011 18 68 3.2 16.1 0.00 0.00 0.00 80 1008.7
20260506101518 18 26 3.2 9.7 0.00 0.00 0.00 77 1008.3
20260506100004 19 65 3.2 14.5 0.00 0.00 0.00 75 1008.4
20260506094505 19 46 6.4 14.5 0.00 0.00 0.00 74 1008.5
20260506093002 19 72 3.2 11.3 0.00 0.00 0.00 72 1007.8
20260506091601 19 30 4.8 17.7 0.00 0.00 0.00 71 1008.4
20260506090059 19 51 3.2 11.3 0.00 0.00 0.00 71 1008.4
20260506084622 19 46 6.4 12.9 0.00 0.00 0.00 70 1008.2
20260506083057 19 30 3.2 4.8 0.00 0.00 0.00 69 1008.0
20260506081600 19 68 0.0 4.8 0.00 0.00 0.00 68 1008.0
20260506073052 19 39 3.2 9.7 0.00 0.00 0.00 65 1008.0
20260506071550 20 63 1.6 9.7 0.00 0.00 0.00 65 1007.9
20260506061543 20 68 0.0 6.4 0.00 0.00 0.00 64 1008.5
20260506044608 19 42 3.2 8.0 0.00 0.00 0.00 62 1009.6
20260506043032 20 51 1.6 9.7 0.00 0.00 0.00 62 1009.4
20260506041528 20 32 3.2 11.3 0.00 0.00 0.00 61 1009.4
20260506040028 20 116 1.6 6.4 0.00 0.00 0.00 60 1009.3
20260506034546 20 72 1.6 11.3 0.00 0.00 0.00 59 1009.6
20260506033023 19 63 0.0 0.0 0.00 0.00 0.00 59 1009.4
20260506031523 20 64 3.2 8.0 0.00 0.00 0.00 58 1009.7
20260506030024 20 79 0.0 6.4 0.00 0.00 0.00 58 1010.0
20260506024522 20 30 0.0 9.7 0.00 0.00 0.00 57 1010.0
20260506023123 20 61 3.2 9.7 0.00 0.00 0.00 57 1009.7
20260506021520 20 68 1.6 6.4 0.00 0.00 0.00 57 1009.7
20260506020019 20 77 0.0 1.6 0.00 0.00 0.00 57 1009.4
20260506014526 20 72 0.0 3.2 0.00 0.00 0.00 56 1009.6
20260506013018 20 87 1.6 6.4 0.00 0.00 0.00 55 1009.5
20260506011518 20 61 1.6 6.4 0.00 0.00 0.00 56 1009.1
20260506010017 19 93 0.0 3.2 0.00 0.00 0.00 56 1009.0
20260506004531 20 70 0.0 1.6 0.00 0.00 0.00 54 1008.9
20260506003029 20 25 0.0 8.0 0.00 0.00 0.00 52 1008.8
20260506001515 21 72 0.0 6.4 0.00 0.00 0.00 50 1008.9
20260506000015 21 53 1.6 9.7 0.00 0.00 0.00 48 1009.4
20260505234525 22 56 1.6 12.9 0.00 0.00 0.00 47 1009.4
20260505233013 22 67 9.7 20.9 0.00 0.00 0.00 45 1009.4
20260505231516 22 41 6.4 25.7 0.00 0.00 0.00 46 1009.3
20260505230013 23 73 4.8 16.1 0.00 0.00 0.00 45 1009.1
20260505224512 23 30 9.7 27.4 0.00 0.00 0.00 43 1008.9
20260505223009 23 28 11.3 22.5 0.00 0.00 0.00 45 1008.9
20260505221512 23 51 4.8 17.7 0.00 0.00 0.00 47 1008.8
20260505220016 23 20 1.6 8.0 0.00 0.00 0.00 52 1009.0